Dothan, AL

10:47 AM CST on February 27, 2017 (GMT -0600)
Dothan Regional

Weather History for KDHN - May, 2014

Change the Weather History Date:

Sunday, May 18, 2014

  Actual Average Record
Temperature  
Mean Temperature 72 °F 75 °F  
Max Temperature 84 °F 87 °F 96 °F (1937)
Min Temperature 60 °F 63 °F 48 °F (2011)
Cooling Degree Days 7 10  
Month to date cooling degree days 114 144  
Year to date cooling degree days 220 265  
Growing Degree Days 22 (Base 50)    
Moisture  
Dew Point 58 °F    
Average Humidity 66    
Maximum Humidity 97    
Minimum Humidity 34    
Precipitation  
Precipitation 0.00 in 0.09 in 3.59 in (1969)
Month to date precipitation 3.08 1.61  
Year to date precipitation 29.46 20.41  
Sea Level Pressure  
Sea Level Pressure 30.19 in    
Wind  
Wind Speed 5 mph (West)    
Max Wind Speed 8 mph    
Max Gust Speed -    
Visibility 10 miles    
Events      
T = Trace of Precipitation, MM = Missing Value Source: NWS Daily Summary

Daily Weather History Graph

Daily Weather History Graph

Search for Another Location

Airport or City:

Trip Planner

Search our weather history database for the weather conditions in past years. The results will help you decide how hot, cold, wet, or windy it might be!

Date:

Astronomy

May. 18, 2014 Rise Set
Actual Time 5:43 AM CDT 7:32 PM CDT
Civil Twilight 5:17 AM CDT 7:59 PM CDT
Nautical Twilight 4:44 AM CDT 8:32 PM CDT
Astronomical Twilight 4:10 AM CDT 9:06 PM CDT
Moon 11:25 PM CDT (5/18) 9:29 AM CDT (5/18)
Length of Visible Light 14h 42m
Length of Day
13h 48m
Waning Gibbous, 81% of the Moon is Illuminated
May 18
Waning Gibbous
May 21
Last Quarter
May 28
New
Jun 5
First Quarter
Jun 12
Full

Hourly Weather History & Observations

Time (CDT) Temp. Heat Index Dew Point Humidity Pressure Visibility Wind Dir Wind Speed Gust Speed Precip Events Conditions
12:53 AM 64.0 °F - 60.1 °F 87% 30.19 in 10.0 mi SSW 5.8 mph - N/A   Clear
1:53 AM 63.0 °F - 60.1 °F 90% 30.18 in 10.0 mi SSW 4.6 mph - N/A   Clear
2:53 AM 62.1 °F - 59.0 °F 90% 30.19 in 10.0 mi SSW 3.5 mph - N/A   Clear
3:53 AM 61.0 °F - 59.0 °F 93% 30.19 in 9.0 mi SSW 4.6 mph - N/A   Clear
4:53 AM 61.0 °F - 59.0 °F 93% 30.20 in 8.0 mi SSW 3.5 mph - N/A   Clear
5:53 AM 61.0 °F - 60.1 °F 97% 30.20 in 5.0 mi SW 6.9 mph - N/A   Clear
6:53 AM 64.0 °F - 61.0 °F 90% 30.20 in 8.0 mi SSW 5.8 mph - N/A   Clear
7:53 AM 68.0 °F - 61.0 °F 78% 30.22 in 10.0 mi West 5.8 mph - N/A   Clear
8:53 AM 73.0 °F - 60.1 °F 64% 30.23 in 10.0 mi WNW 6.9 mph - N/A   Clear
9:53 AM 75.0 °F - 60.1 °F 60% 30.23 in 10.0 mi North 5.8 mph - N/A   Clear
10:53 AM 78.1 °F - 55.9 °F 46% 30.22 in 10.0 mi NW 8.1 mph - N/A   Scattered Clouds
11:53 AM 78.1 °F - 55.0 °F 45% 30.21 in 10.0 mi Calm Calm - N/A   Scattered Clouds
12:53 PM 81.0 °F 80.7 °F 55.0 °F 41% 30.19 in 10.0 mi NW 8.1 mph - N/A   Partly Cloudy
1:53 PM 81.0 °F 81.0 °F 57.0 °F 44% 30.18 in 10.0 mi North 8.1 mph - N/A   Scattered Clouds
2:53 PM 81.0 °F 80.5 °F 54.0 °F 39% 30.17 in 10.0 mi Variable 3.5 mph - N/A   Scattered Clouds
3:53 PM 82.9 °F 81.9 °F 54.0 °F 37% 30.15 in 10.0 mi NW 6.9 mph - N/A   Partly Cloudy
4:53 PM 84.0 °F 82.5 °F 53.1 °F 34% 30.15 in 10.0 mi Calm Calm - N/A   Scattered Clouds
5:53 PM 80.1 °F 80.0 °F 54.0 °F 40% 30.15 in 10.0 mi NW 5.8 mph - N/A   Clear
6:53 PM 79.0 °F - 57.9 °F 48% 30.15 in 10.0 mi North 3.5 mph - N/A   Clear
7:53 PM 73.0 °F - 60.1 °F 64% 30.16 in 10.0 mi Calm Calm - N/A   Clear
8:53 PM 69.1 °F - 61.0 °F 75% 30.17 in 10.0 mi Calm Calm - N/A   Clear
9:53 PM 66.9 °F - 62.1 °F 84% 30.18 in 10.0 mi Calm Calm - N/A   Clear
10:53 PM 66.9 °F - 57.9 °F 73% 30.18 in 10.0 mi Calm Calm - N/A   Clear
11:53 PM 66.0 °F - 60.1 °F 81% 30.19 in 10.0 mi Variable 3.5 mph - N/A   Clear